When you browse on this site, cookies collect data to enhance your experience and personalize the content and advertising you see.
Visit our Privacy Policy to learn more. By continuing to use the site, you agree to this use of cookies and data.
  • In Hungary
  • List of Countries
  • For 7 days
  • Water Temperature
  • Weather Map
  • News
  • Weather Widgets
  • user-avatar
    Login

    Hourly Weather Mologino

    Today, 25 January, Saturday

    Time Temperature Precipitation Wind Pressure Humidity
    00:00 0°C° 0.1 mm 5 mps 727 mmHg 92%
    01:00 -1°C° 0.1 mm 5 mps 727 mmHg 91%
    02:00 -1°C° 0.1 mm 4 mps 727 mmHg 90%
    03:00 -1°C° 0 mm 4 mps 727 mmHg 89%
    04:00 -1°C° 0 mm 4 mps 726 mmHg 89%
    05:00 -1°C° 0 mm 4 mps 726 mmHg 89%
    06:00 -1°C° 0 mm 4 mps 726 mmHg 90%
    07:00 -1°C° 0 mm 4 mps 726 mmHg 90%
    08:00 -1°C° 0 mm 4 mps 726 mmHg 91%
    09:00 -1°C° 0.1 mm 5 mps 725 mmHg 87%
    10:00 -2°C° 0.1 mm 6 mps 725 mmHg 83%
    11:00 -1°C° 0.1 mm 6 mps 725 mmHg 79%
    12:00 -2°C° 0.2 mm 6 mps 725 mmHg 76%
    13:00 -2°C° 0.2 mm 6 mps 725 mmHg 72%
    14:00 -2°C° 0.2 mm 7 mps 725 mmHg 69%
    15:00 -3°C° 0 mm 6 mps 726 mmHg 71%
    16:00 -4°C° 0 mm 6 mps 727 mmHg 73%
    17:00 -4°C° 0 mm 6 mps 727 mmHg 74%
    18:00 -5°C° 0 mm 6 mps 727 mmHg 74%
    19:00 -5°C° 0 mm 6 mps 728 mmHg 75%
    20:00 -5°C° 0 mm 6 mps 728 mmHg 75%
    21:00 -5°C° 0 mm 6 mps 729 mmHg 76%
    22:00 -5°C° 0 mm 6 mps 730 mmHg 77%
    23:00 -5°C° 0 mm 6 mps 731 mmHg 78%

    Tomorrow, 26 January, Sunday

    Time Temperature Precipitation Wind Pressure Humidity
    00:00 -5°C° 0 mm 6 mps 731 mmHg 78%
    01:00 -5°C° 0 mm 5 mps 732 mmHg 77%
    02:00 -6°C° 0 mm 5 mps 733 mmHg 76%
    03:00 -6°C° 0 mm 5 mps 734 mmHg 77%
    04:00 -5°C° 0 mm 4 mps 734 mmHg 79%
    05:00 -5°C° 0 mm 4 mps 735 mmHg 80%
    06:00 -5°C° 0 mm 4 mps 735 mmHg 81%
    07:00 -5°C° 0 mm 3 mps 736 mmHg 83%
    08:00 -5°C° 0 mm 3 mps 736 mmHg 84%
    09:00 -5°C° 0 mm 3 mps 736 mmHg 82%
    10:00 -4°C° 0 mm 3 mps 736 mmHg 79%
    11:00 -4°C° 0 mm 4 mps 736 mmHg 77%
    12:00 -3°C° 0.1 mm 4 mps 736 mmHg 78%
    13:00 -4°C° 0.1 mm 5 mps 735 mmHg 78%
    14:00 -4°C° 0.1 mm 5 mps 735 mmHg 79%
    15:00 -3°C° 0.1 mm 6 mps 734 mmHg 84%
    16:00 -3°C° 0.1 mm 6 mps 734 mmHg 90%
    17:00 -3°C° 0.1 mm 6 mps 733 mmHg 95%
    18:00 -2°C° 0 mm 6 mps 733 mmHg 94%
    19:00 -1°C° 0 mm 6 mps 733 mmHg 93%
    20:00 +1°C° 0 mm 5 mps 733 mmHg 92%
    21:00 +1°C° 0 mm 5 mps 733 mmHg 91%
    22:00 +1°C° 0 mm 5 mps 733 mmHg 90%
    23:00 +1°C° 0 mm 5 mps 733 mmHg 89%

    Day after tomorrow, 27 January, Monday

    Time Temperature Precipitation Wind Pressure Humidity
    00:00 +1°C° 0.1 mm 5 mps 733 mmHg 90%
    01:00 +1°C° 0.1 mm 5 mps 733 mmHg 91%
    02:00 +1°C° 0.1 mm 5 mps 733 mmHg 91%
    03:00 0°C° 0.1 mm 5 mps 733 mmHg 92%
    04:00 0°C° 0.1 mm 4 mps 734 mmHg 94%
    05:00 0°C° 0.1 mm 4 mps 734 mmHg 95%
    06:00 0°C° 0.1 mm 4 mps 734 mmHg 96%
    07:00 +1°C° 0.1 mm 3 mps 734 mmHg 96%
    08:00 +1°C° 0.1 mm 3 mps 735 mmHg 97%
    09:00 +1°C° 0.1 mm 3 mps 735 mmHg 97%
    10:00 +2°C° 0.1 mm 2 mps 735 mmHg 98%
    11:00 +2°C° 0.1 mm 2 mps 736 mmHg 98%
    12:00 +2°C° 0.2 mm 2 mps 736 mmHg 98%
    13:00 +2°C° 0.2 mm 2 mps 736 mmHg 98%
    14:00 +2°C° 0.2 mm 2 mps 736 mmHg 98%
    15:00 +2°C° 0.4 mm 2 mps 736 mmHg 98%
    16:00 +1°C° 0.4 mm 2 mps 736 mmHg 98%
    17:00 +1°C° 0.4 mm 2 mps 736 mmHg 98%
    18:00 +1°C° 0.4 mm 2 mps 736 mmHg 98%
    19:00 +1°C° 0.4 mm 2 mps 736 mmHg 98%
    20:00 +1°C° 0.4 mm 2 mps 736 mmHg 98%
    21:00 +1°C° 0.4 mm 2 mps 736 mmHg 98%
    22:00 +1°C° 0.4 mm 2 mps 735 mmHg 98%
    23:00 +1°C° 0.4 mm 2 mps 735 mmHg 98%

    28 January, Tuesday

    Time Temperature Precipitation Wind Pressure Humidity
    00:00 +1°C° 0.2 mm 2 mps 735 mmHg 98%
    01:00 +1°C° 0.2 mm 2 mps 735 mmHg 98%
    02:00 +1°C° 0.2 mm 2 mps 735 mmHg 98%
    03:00 +1°C° 0.3 mm 2 mps 735 mmHg 98%
    04:00 +1°C° 0.3 mm 2 mps 734 mmHg 98%
    05:00 +1°C° 0.3 mm 2 mps 734 mmHg 98%
    06:00 +1°C° 0.2 mm 2 mps 734 mmHg 98%
    07:00 +1°C° 0.2 mm 2 mps 734 mmHg 98%
    08:00 +1°C° 0.2 mm 2 mps 734 mmHg 98%
    09:00 +1°C° 0 mm 2 mps 734 mmHg 98%
    10:00 +1°C° 0 mm 2 mps 734 mmHg 97%
    11:00 +1°C° 0 mm 2 mps 734 mmHg 97%
    12:00 -1°C° 0.1 mm 2 mps 734 mmHg 97%
    13:00 -1°C° 0.1 mm 2 mps 733 mmHg 97%
    14:00 -1°C° 0.1 mm 2 mps 733 mmHg 97%
    15:00 -1°C° 0.1 mm 2 mps 733 mmHg 97%
    16:00 -1°C° 0.1 mm 2 mps 733 mmHg 97%
    17:00 -1°C° 0.1 mm 2 mps 733 mmHg 97%
    18:00 -1°C° 0.1 mm 2 mps 733 mmHg 97%
    19:00 -1°C° 0.1 mm 2 mps 733 mmHg 97%
    20:00 -2°C° 0.1 mm 2 mps 733 mmHg 98%
    21:00 -1°C° 0.2 mm 2 mps 733 mmHg 98%
    22:00 -1°C° 0.2 mm 2 mps 733 mmHg 98%
    23:00 -1°C° 0.2 mm 2 mps 733 mmHg 98%

    29 January, Wednesday

    Time Temperature Precipitation Wind Pressure Humidity
    00:00 -1°C° 0.2 mm 2 mps 732 mmHg 98%
    01:00 +1°C° 0.2 mm 2 mps 732 mmHg 98%
    02:00 +1°C° 0.2 mm 2 mps 732 mmHg 98%
    03:00 +1°C° 0.1 mm 2 mps 732 mmHg 98%
    04:00 +1°C° 0.1 mm 2 mps 732 mmHg 98%
    05:00 0°C° 0.1 mm 3 mps 732 mmHg 98%
    06:00 0°C° 0.1 mm 3 mps 732 mmHg 97%
    07:00 0°C° 0.1 mm 3 mps 732 mmHg 97%
    08:00 0°C° 0.1 mm 3 mps 732 mmHg 97%
    09:00 0°C° 0 mm 3 mps 732 mmHg 96%
    10:00 0°C° 0 mm 3 mps 732 mmHg 94%
    11:00 -1°C° 0 mm 4 mps 732 mmHg 93%
    12:00 0°C° 0 mm 3 mps 732 mmHg 94%
    13:00 0°C° 0 mm 3 mps 731 mmHg 94%
    14:00 0°C° 0 mm 3 mps 731 mmHg 95%
    15:00 0°C° 0 mm 3 mps 731 mmHg 96%
    16:00 0°C° 0 mm 3 mps 731 mmHg 96%
    17:00 0°C° 0 mm 3 mps 731 mmHg 96%
    18:00 0°C° 0 mm 3 mps 731 mmHg 97%
    19:00 0°C° 0 mm 3 mps 730 mmHg 97%
    20:00 0°C° 0 mm 3 mps 730 mmHg 97%
    21:00 0°C° 0 mm 3 mps 730 mmHg 96%
    22:00 0°C° 0 mm 3 mps 730 mmHg 95%
    23:00 0°C° 0 mm 3 mps 730 mmHg 94%

    30 January, Thursday

    Time Temperature Precipitation Wind Pressure Humidity
    00:00 -1°C° 0.2 mm 4 mps 729 mmHg 95%
    01:00 -2°C° 0.2 mm 4 mps 729 mmHg 96%
    02:00 -2°C° 0.2 mm 4 mps 728 mmHg 97%
    03:00 -2°C° 0.4 mm 4 mps 728 mmHg 97%
    04:00 -2°C° 0.4 mm 4 mps 728 mmHg 97%
    05:00 -2°C° 0.4 mm 4 mps 727 mmHg 97%
    06:00 -2°C° 0.5 mm 4 mps 727 mmHg 97%
    07:00 -2°C° 0.5 mm 4 mps 727 mmHg 97%
    08:00 -1°C° 0.5 mm 4 mps 726 mmHg 97%
    09:00 -1°C° 0.3 mm 5 mps 726 mmHg 97%
    10:00 -1°C° 0.3 mm 5 mps 726 mmHg 97%
    11:00 -1°C° 0.3 mm 5 mps 726 mmHg 96%
    12:00 -2°C° 0.2 mm 5 mps 726 mmHg 96%
    13:00 -2°C° 0.2 mm 4 mps 726 mmHg 96%
    14:00 -2°C° 0.2 mm 4 mps 725 mmHg 96%
    15:00 -2°C° 0.4 mm 4 mps 725 mmHg 96%
    16:00 -2°C° 0.4 mm 4 mps 725 mmHg 96%
    17:00 -3°C° 0.4 mm 4 mps 725 mmHg 96%
    18:00 -2°C° 0.3 mm 3 mps 725 mmHg 96%
    19:00 -2°C° 0.3 mm 3 mps 725 mmHg 96%
    20:00 -2°C° 0.3 mm 3 mps 725 mmHg 95%
    21:00 -2°C° 0.1 mm 3 mps 725 mmHg 95%
    22:00 -4°C° 0.1 mm 3 mps 725 mmHg 95%
    23:00 -4°C° 0.1 mm 3 mps 725 mmHg 95%
    Show more